Content
SEND FEEDBACK

Daily
Averages
Monthly
Summary
United States of America

BOX ELDER, SOUTH DAKOTA


Home > North America > United States > South Dakota
Elevation: 3170 feet     Latitude: 44 09N     Longitude: 103 06W

WEATHER
 
SELECT A DAY
Number of Records: 204,292;   Date Range: 1/1/95 - 9/16/14
 
SHARE

PRINT THIS DATA

[ ← Previous Day ]
WEATHER ALMANAC - JULY 13, 2013
[ Next Day → ]
[ °C ]   °F
Weather ElementAverageHighLow
Temperature82.4 °F93 °F (3:58 pm)65.8 °F (5:58 am)
Dewpoint60.7 °F62.6 °F (12:55 pm)55.4 °F (1:58 am)
Humidity49.1 %77 % (5:58 am)34 % (3:58 pm)
Barometer29.92 in30.04 in (11:55 pm)29.85 in (3:58 pm)
Wind Speed10.3 mph20.7 mph (10:55 pm)
Wind Gust25.3 mph (2:25 pm)
Weather ElementAverage
Visibility10 mi
Wind DirectionSSE (147.2 °)

Weather ElementTotal
Precipitation---
Cooling Degree Days14.4 (Base 65)
Growing Degree Days29.4 (Base 50)
Averaged from 29 records on July 13, 2013
WEATHER CONDITIONS BREAKOUT
WIND DIRECTION BREAKOUT
WEATHER BY HOUR - JULY 13, 2013
[ °C ]   °F
Local TimeTemperatureDewpointHumidityBarometerVisibilityWind DirectionWind SpeedGust SpeedPrecipitationEventsConditions
1:58 AM73.0 °F55.4 °F54 %29.90 in10.0 miENE (70°)4.6 mphOvercast
2:58 AM72.1 °F56.1 °F57 %29.90 in10.0 miNE (40°)3.5 mphPartly Cloudy
3:58 AM70.7 °F57.2 °F62 %29.89 in10.0 miCalmOvercast
4:58 AM67.6 °F57.0 °F69 %29.89 in10.0 miCalmMostly Cloudy
5:58 AM65.8 °F58.3 °F77 %29.91 in10.0 miSE (140°)4.6 mphScattered Clouds
6:58 AM70.5 °F58.3 °F65 %29.92 in10.0 miSE (140°)4.6 mphScattered Clouds
7:58 AM75.9 °F59.5 °F57 %29.94 in10.0 miSSE (160°)6.9 mphClear
8:58 AM77.0 °F61.5 °F59 %29.94 in10.0 miSSE (150°)10.4 mphClear
9:58 AM81.9 °F61.5 °F50 %29.92 in10.0 miSSE (160°)13.8 mphClear
10:58 AM83.7 °F62.1 °F48 %29.92 in10.0 miSouth (180°)12.7 mphClear
11:58 AM87.3 °F61.0 °F41 %29.91 in10.0 miSE (140°)12.7 mph21.9 mphClear
12:55 PM89.6 °F62.6 °F40 %29.97 in10.0 miSouth (180°)15.0 mph23.0 mphScattered Clouds
12:58 PM90.1 °F61.9 °F39 %29.88 in10.0 miSSE (160°)13.8 mph23.0 mphScattered Clouds
12:59 PM89.6 °F62.6 °F40 %29.97 in10.0 miSSE (150°)18.4 mph23.0 mphScattered Clouds
1:34 PM89.6 °F60.8 °F38 %29.96 in10.0 miSouth (170°)15.0 mph24.2 mphScattered Clouds
1:58 PM91.9 °F61.2 °F36 %29.87 in10.0 miSE (130°)16.1 mph24.2 mphClear
2:25 PM91.4 °F60.8 °F36 %29.95 in10.0 miSouth (180°)13.8 mph25.3 mphScattered Clouds
2:51 PM91.4 °F62.6 °F38 %29.95 in10.0 miSouth (170°)13.8 mph23.0 mphClear
2:58 PM91.4 °F61.0 °F36 %29.86 in10.0 miSE (130°)12.7 mph20.7 mphClear
3:58 PM93.0 °F60.8 °F34 %29.85 in10.0 miSE (130°)9.2 mphPartly Cloudy
4:58 PM93.0 °F62.2 °F36 %29.86 in10.0 miSE (140°)9.2 mphMostly Cloudy
5:58 PM88.2 °F62.1 °F41 %29.87 in10.0 miSSE (150°)9.2 mphMostly Cloudy
6:58 PM89.6 °F62.6 °F40 %29.85 in10.0 miESE (110°)5.8 mphPartly Cloudy
7:58 PM86.0 °F62.6 °F45 %29.87 in10.0 miNorth (10°)4.6 mphScattered Clouds
8:58 PM78.8 °F62.6 °F57 %29.90 in10.0 miNW (320°)8.1 mphMostly Cloudy
9:58 PM77.0 °F60.8 °F57 %29.90 in10.0 miWSW (240°)5.8 mphScattered Clouds
10:55 PM78.8 °F60.8 °F54 %30.01 in10.0 miNorth (360°)20.7 mphOvercast
11:03 PM80.6 °F62.6 °F54 %30.02 in10.0 miNorth (360°)19.6 mphMostly Cloudy
11:55 PM75.2 °F62.6 °F65 %30.04 in10.0 miNorth12.7 mphThunderstormMostly Cloudy
Hourly data recorded from KRCA, located miles away from Box Elder, South Dakota







STORIES FROM OUR PARTNERS